{"data":{"norad_id":61711,"intl_designator":"2024-196E","name":"STARLINK-32312","alt_names":[],"object_type":"PAYLOAD","status":"ACTIVE","operator":null,"country":"US","launch_date":"2024-10-30","launch_site_code":"AFETR","launch_vehicle":null,"mission":null,"orbit_class":"UNKNOWN","rcs_meters":null,"size_class":null,"mass_kg":null,"dimensions":null,"purposes":["comms"],"wikipedia_slug":null,"has_3d_model":false,"image_url":null,"decayed_at":null,"tle_current":{"epoch":"2026-09-21T17:12:55.465632Z","epoch_age_seconds":83723,"freshness":"FRESH","line1":"1 61711U 24196E   26264.71730863 -.00000102  00000+0  81151-5 0  9997","line2":"2 61711  53.1608 267.6662 0001456  91.0699 269.0470 15.34388068107211","mean_motion":15.34388068,"eccentricity":0.0001456,"inclination_deg":53.1608,"raan_deg":267.6662,"arg_perigee_deg":91.0699,"mean_anomaly_deg":269.047,"bstar":8.1151e-6,"rev_number":10721,"period_min":93.8484878781,"perigee_km":461.74267335285,"apogee_km":463.73473635811,"semimajor_km":6840.8757048555,"source":"CELESTRAK","updated_at":"2026-09-22T09:00:49.410530Z"}}}